Overview Statistics Trail Chart Weather Telemetry Raw packets
 

This is the latest recevied weather packets stored in our database for station/object EA5JMY-10. If no packets are shown the sender has not sent any weather packets the latest 10 day(s).

<< 9 10 11 12 13 14 15 >>
Time Temp. Humidity Pressure Rain* Wind** Luminosity Snow
1788384331 28.33° C 72% 1023.1 hPa - - - -
1788383431 28.33° C 71% 1023.2 hPa - - - -
1788382530 28.33° C 70% 1023.1 hPa - - - -
1788381630 28.33° C 71% 1023 hPa - - - -
1788380730 28.33° C 69% 1022.8 hPa - - - -
1788379830 28.33° C 72% 1022.8 hPa - - - -
1788378930 28.33° C 70% 1022.4 hPa - - - -
1788378030 28.33° C 70% 1022.2 hPa - - - -
1788377130 28.33° C 68% 1021.8 hPa - - - -
1788376230 28.89° C 69% 1021.5 hPa - - - -
1788375329 28.33° C 69% 1021.3 hPa - - - -
1788374429 28.33° C 70% 1021.4 hPa - - - -
1788373529 28.89° C 70% 1021.4 hPa - - - -
1788372629 28.89° C 69% 1021.3 hPa - - - -
1788371729 28.89° C 67% 1021.2 hPa - - - -
1788370850 28.89° C 68% 1021.1 hPa - - - -
1788369929 29.44° C 66% 1021.1 hPa - - - -
1788369029 29.44° C 65% 1021 hPa - - - -
1788368128 30° C 62% 1021 hPa - - - -
1788367228 30° C 61% 1020.9 hPa - - - -
1788366328 30° C 61% 1020.9 hPa - - - -
1788365428 31.11° C 58% 1021.1 hPa - - - -
1788364527 31.67° C 57% 1021 hPa - - - -
1788363627 32.22° C 53% 1021.2 hPa - - - -
1788362727 32.22° C 54% 1021.3 hPa - - - -

* Rain since midnight (hover to see other rain measurements)
** Current wind speed in m/s (hover to see current wind gust speed)